Weather History for Lamar, CO

Change the Weather History Date:

Friday, July 12, 2013

  Actual Average Record
Temperature  
Mean Temperature 88 °F 77 °F  
Max Temperature 102 °F 94 °F 106 °F (1938)
Min Temperature 73 °F 61 °F 53 °F (1975)
Degree Days  
Heating Degree Days 0 0  
Month to date heating degree days 0 0  
Since 1 June heating degree days 16 20  
Since 1 July heating degree days 0 0  
Cooling Degree Days 23 12  
Month to date cooling degree days 181 139  
Year to date cooling degree days 704 419  
Since 1 June cooling degree days 563 359  
Growing Degree Days 38 (Base 50)    
Moisture  
Dew Point 54 °F    
Average Humidity 39    
Maximum Humidity 61    
Minimum Humidity 16    
Precipitation  
Precipitation 0.00 in 0.10 in 1.10 in (1941)
Month to date precipitation 0.78 0.93  
Year to date precipitation 3.59 8.13  
Sea Level Pressure  
Sea Level Pressure 29.70 in    
Wind  
Wind Speed 17 mph (South)    
Max Wind Speed 28 mph    
Max Gust Speed 35 mph    
Visibility 10 miles    
Events      
T = Trace of Precipitation, MM = Missing Value Source: NWS Daily Summary

Daily Weather History Graph

Daily Weather History Graph

Search for Another Location

Airport:

Trip Planner

Search our weather history database for the weather conditions in past years. The results will help you decide how hot, cold, wet, or windy it might be!

Date:

Astronomy

Jul. 12, 2013 Rise Set
Actual Time 5:38 AM MDT 8:14 PM MDT
Civil Twilight 5:07 AM MDT 8:45 PM MDT
Nautical Twilight 4:29 AM MDT 9:23 PM MDT
Astronomical Twilight 3:46 AM MDT 10:06 PM MDT
Moon 9:52 AM MDT (7/12) 10:31 PM MDT (7/12)
Length of Visible Light 15h 37m
Length of Day
14h 36m
Waxing Crescent, 18% of the Moon is Illuminated
Jul 12
Waxing Crescent
Jul 15
First Quarter
Jul 22
Full
Jul 29
Last Quarter
Aug 6
New

Hourly Weather History & Observations

Time (MDT) Temp. Heat Index Dew Point Humidity Pressure Visibility Wind Dir Wind Speed Gust Speed Precip Events Conditions
12:53 AM 75.9 °F - 60.1 °F 58% 29.76 in 10.0 mi South 19.6 mph - N/A   Clear
1:53 AM 75.9 °F - 59.0 °F 56% 29.74 in 10.0 mi South 18.4 mph 26.5 mph N/A   Clear
2:53 AM 75.0 °F - 57.9 °F 55% 29.73 in 10.0 mi South 21.9 mph 28.8 mph N/A   Clear
3:53 AM 75.9 °F - 57.9 °F 54% 29.71 in 10.0 mi South 26.5 mph 33.4 mph N/A   Clear
4:53 AM 73.9 °F - 57.9 °F 57% 29.72 in 10.0 mi South 20.7 mph 27.6 mph N/A   Clear
5:53 AM 73.9 °F - 59.0 °F 59% 29.72 in 10.0 mi South 16.1 mph - N/A   Clear
6:53 AM 75.0 °F - 59.0 °F 57% 29.73 in 10.0 mi South 16.1 mph - N/A   Clear
7:53 AM 82.9 °F 82.8 °F 59.0 °F 44% 29.72 in 10.0 mi SSW 20.7 mph 25.3 mph N/A   Clear
8:53 AM 89.1 °F 88.2 °F 59.0 °F 36% 29.73 in 10.0 mi SSW 18.4 mph 25.3 mph N/A   Clear
9:53 AM 93.0 °F 91.7 °F 57.0 °F 30% 29.72 in 10.0 mi SW 12.7 mph - N/A   Clear
10:53 AM 96.1 °F 94.5 °F 55.9 °F 26% 29.72 in 10.0 mi WSW 9.2 mph - N/A   Clear
11:53 AM 98.1 °F 96.4 °F 55.0 °F 24% 29.70 in 10.0 mi West 10.4 mph - N/A   Clear
12:53 PM 99.0 °F 96.5 °F 53.1 °F 21% 29.69 in 10.0 mi Calm Calm - N/A   Clear
1:53 PM 99.0 °F - 51.1 °F 20% 29.68 in 10.0 mi SSW 12.7 mph - N/A   Partly Cloudy
2:53 PM 100.9 °F - 52.0 °F 19% 29.67 in 10.0 mi South 20.7 mph 24.2 mph N/A   Clear
3:53 PM 102.0 °F - 48.0 °F 16% 29.66 in 10.0 mi South 17.3 mph 26.5 mph N/A   Clear
4:53 PM 100.0 °F - 46.9 °F 16% 29.65 in 10.0 mi South 20.7 mph 29.9 mph N/A   Clear
5:53 PM 99.0 °F - 48.0 °F 18% 29.65 in 10.0 mi South 24.2 mph 31.1 mph N/A   Clear
6:53 PM 97.0 °F - 51.1 °F 21% 29.66 in 10.0 mi South 21.9 mph 34.5 mph N/A   Clear
7:53 PM 93.9 °F - 51.1 °F 23% 29.67 in 10.0 mi South 20.7 mph - N/A   Clear
8:53 PM 90.0 °F - 51.1 °F 26% 29.69 in 10.0 mi South 18.4 mph - N/A   Clear
9:53 PM 87.1 °F - 51.1 °F 29% 29.71 in 10.0 mi South 16.1 mph - N/A   Clear
10:53 PM 84.9 °F 83.2 °F 53.1 °F 33% 29.72 in 10.0 mi South 18.4 mph - N/A   Clear
11:53 PM 82.9 °F 81.9 °F 54.0 °F 37% 29.74 in 10.0 mi South 17.3 mph - N/A   Clear